Regional Weather Roundup
Issued by NWS Sioux Falls, SD

Home | Current Version | Previous Version | Text Only | Print | Product List | Glossary On
Versions: 1 2 3 4 5 6 7 8 9 10 11 12 13 14 15 16 17 18 19 20 21 22 23 24 25 26 27 28 29 30 31 32 33 34 35 36 37 38 39 40 41 42 43 44 45 46 47 48 49 50
000
ASUS43 KFSD 192010
RWRFSD

WEATHER ROUNDUP FOR SE SOUTH DAKOTA/SW MINNESOTA/NW IOWA
NATIONAL WEATHER SERVICE SIOUX FALLS SD
300 PM CDT THU APR 19 2018

NOTE: "FAIR" INDICATES FEW OR NO CLOUDS BELOW 12,000 FEET WITH NO
SIGNIFICANT WEATHER AND OR OBSTRUCTIONS TO VISIBILITY.


SDZ038>040-050-052>070-192100-
SOUTHEAST SOUTH DAKOTA

CITY           SKY/WX    TMP DP  RH WIND       PRES   REMARKS
BROOKINGS      SUNNY     46  21  37 S7        30.45F
CHAMBERLAIN    MOSUNNY   49  33  54 SE13      30.42S
HURON          SUNNY     44  28  53 S10       30.45F
MADISON        FAIR      41  27  56 S6        30.46S
MITCHELL       SUNNY     45  33  63 CALM      30.46F
SIOUX FALLS    MOSUNNY   46  27  47 CALM      30.47F
WINNER         FAIR      47  26  44 SE12      30.40F
YANKTON        SUNNY     49  28  44 VRB6      30.45F
$$

MNZ071-072-080-081-089-090-097-098-192100-
SOUTHWEST MINNESOTA

CITY           SKY/WX    TMP DP  RH WIND       PRES   REMARKS
FAIRMONT       SUNNY     39  20  46 NE5       30.50F
JACKSON        SUNNY     39  23  52 SE3       30.49S
LUVERNE        SUNNY     37  27  65 CALM      30.48F
MARSHALL       SUNNY     42  26  53 W5        30.49S
MONTEVIDEO     SUNNY     46  21  36 SW7       30.48F
PIPESTONE      SUNNY    N/A N/A N/A CALM      30.46F
REDWOOD FALLS  SUNNY     40  22  48 S6        30.48F
TRACY          SUNNY     42  29  60 W9        30.48S
WINDOM           N/A     39  18  41 SE6       30.49S
WORTHINGTON    SUNNY     37  23  56 SE7       30.48F
$$

IAZ001>003-012>014-020>022-031-032-NEZ013-014-SDZ071-192100-
NORTHWEST IOWA

CITY           SKY/WX    TMP DP  RH WIND       PRES   REMARKS
CHEROKEE       SUNNY     39  27  62 E8        30.49F
DENISON        SUNNY     52  32  46 E8G16     30.47F
ESTHERVILLE    SUNNY     36  26  67 E7        30.48F
LE MARS        SUNNY     43  28  56 VRB3      30.48F
ORANGE CITY    SUNNY     39  28  65 CALM      30.49S
SHELDON        SUNNY     37  27  65 SE7       30.46F
SIOUX CITY     SUNNY     52  32  46 NE8       30.46F
SPENCER        SUNNY     39  22  50 E7        30.49F
STORM LAKE       N/A     36  25  64 E10       30.48F
$$

ABBREVIATIONS USED IN REMARKS
   TC - TEMPERATURE IN CELSIUS
  WCI - WIND CHILL INDEX
   HX - HEAT INDEX
  VSB - VISIBILITY





USA.gov is the U.S. government's official web portal to all federal, state and local government web resources and services.